Time,TemperatureF,DewpointF,PressureIn,WindDirection,WindDirectionDegrees,WindSpeedMPH,WindSpeedGustMPH,Humidity,HourlyPrecipIn,Conditions,Clouds,dailyrainin,SoftwareType,DateUTC
2013-03-09 00:11:00,17.0,-99.9,-100.00,North,-999,-999.0,-999.0,-999,0.01,,,0.07,,2013-03-09 07:11:00,
2013-03-09 00:22:00,17.0,-99.9,-100.00,North,-999,-999.0,-999.0,-999,0.01,,,0.07,,2013-03-09 07:22:00,
2013-03-09 00:32:00,17.0,-99.9,-100.00,North,-999,-999.0,-999.0,-999,0.01,,,0.07,,2013-03-09 07:32:00,
2013-03-09 00:42:00,17.0,-99.9,-100.00,North,-999,-999.0,-999.0,-999,0.01,,,0.07,,2013-03-09 07:42:00,
2013-03-09 01:11:00,16.0,-99.9,-100.00,North,-999,-999.0,-999.0,-999,0.00,,,0.07,,2013-03-09 08:11:00,
2013-03-09 01:22:00,16.0,-99.9,-100.00,North,-999,-999.0,-999.0,-999,0.00,,,0.07,,2013-03-09 08:22:00,
2013-03-09 01:32:00,16.0,-99.9,-100.00,North,-999,-999.0,-999.0,-999,0.00,,,0.07,,2013-03-09 08:32:00,
2013-03-09 01:42:00,16.0,-99.9,-100.00,North,-999,-999.0,-999.0,-999,0.00,,,0.07,,2013-03-09 08:42:00,
2013-03-09 02:22:00,12.0,-99.9,-100.00,North,-999,-999.0,-999.0,-999,0.01,,,0.08,,2013-03-09 09:22:00,
2013-03-09 02:32:00,12.0,-99.9,-100.00,North,-999,-999.0,-999.0,-999,0.01,,,0.08,,2013-03-09 09:32:00,
2013-03-09 02:42:00,12.0,-99.9,-100.00,North,-999,-999.0,-999.0,-999,0.01,,,0.08,,2013-03-09 09:42:00,
2013-03-09 03:11:00,11.0,-99.9,-100.00,North,-999,-999.0,-999.0,-999,0.00,,,0.08,,2013-03-09 10:11:00,
2013-03-09 03:22:00,11.0,-99.9,-100.00,North,-999,-999.0,-999.0,-999,0.00,,,0.08,,2013-03-09 10:22:00,
2013-03-09 03:32:00,11.0,-99.9,-100.00,North,-999,-999.0,-999.0,-999,0.00,,,0.08,,2013-03-09 10:32:00,
2013-03-09 03:42:00,11.0,-99.9,-100.00,North,-999,-999.0,-999.0,-999,0.00,,,0.08,,2013-03-09 10:42:00,
2013-03-09 04:11:00,9.0,-99.9,-100.00,North,-999,-999.0,-999.0,-999,0.01,,,0.09,,2013-03-09 11:11:00,
2013-03-09 04:22:00,9.0,-99.9,-100.00,North,-999,-999.0,-999.0,-999,0.01,,,0.09,,2013-03-09 11:22:00,
2013-03-09 04:32:00,9.0,-99.9,-100.00,North,-999,-999.0,-999.0,-999,0.01,,,0.09,,2013-03-09 11:32:00,
2013-03-09 04:42:00,9.0,-99.9,-100.00,North,-999,-999.0,-999.0,-999,0.01,,,0.09,,2013-03-09 11:42:00,
2013-03-09 05:22:00,8.0,-99.9,-100.00,North,-999,-999.0,-999.0,-999,0.00,,,0.09,,2013-03-09 12:22:00,
2013-03-09 05:32:00,8.0,-99.9,-100.00,North,-999,-999.0,-999.0,-999,0.00,,,0.09,,2013-03-09 12:32:00,
2013-03-09 05:42:00,8.0,-99.9,-100.00,North,-999,-999.0,-999.0,-999,0.00,,,0.09,,2013-03-09 12:42:00,
2013-03-09 06:12:00,8.0,-99.9,-100.00,North,-999,-999.0,-999.0,-999,0.00,,,0.09,,2013-03-09 13:12:00,
2013-03-09 06:22:00,8.0,-99.9,-100.00,North,-999,-999.0,-999.0,-999,0.00,,,0.09,,2013-03-09 13:22:00,
2013-03-09 06:32:00,8.0,-99.9,-100.00,North,-999,-999.0,-999.0,-999,0.00,,,0.09,,2013-03-09 13:32:00,
2013-03-09 06:42:00,8.0,-99.9,-100.00,North,-999,-999.0,-999.0,-999,0.00,,,0.09,,2013-03-09 13:42:00,
2013-03-09 07:11:00,6.0,-99.9,-100.00,North,-999,-999.0,-999.0,-999,0.00,,,0.09,,2013-03-09 14:11:00,
2013-03-09 07:22:00,6.0,-99.9,-100.00,North,-999,-999.0,-999.0,-999,0.00,,,0.09,,2013-03-09 14:22:00,
2013-03-09 07:32:00,6.0,-99.9,-100.00,North,-999,-999.0,-999.0,-999,0.00,,,0.09,,2013-03-09 14:32:00,
2013-03-09 07:42:00,6.0,-99.9,-100.00,North,-999,-999.0,-999.0,-999,0.00,,,0.09,,2013-03-09 14:42:00,
2013-03-09 08:12:00,6.0,-99.9,-100.00,North,-999,-999.0,-999.0,-999,0.00,,,0.09,,2013-03-09 15:12:00,
2013-03-09 08:22:00,6.0,-99.9,-100.00,North,-999,-999.0,-999.0,-999,0.00,,,0.09,,2013-03-09 15:22:00,
2013-03-09 08:32:00,6.0,-99.9,-100.00,North,-999,-999.0,-999.0,-999,0.00,,,0.09,,2013-03-09 15:32:00,
2013-03-09 08:42:00,6.0,-99.9,-100.00,North,-999,-999.0,-999.0,-999,0.00,,,0.09,,2013-03-09 15:42:00,
2013-03-09 09:12:00,18.0,-99.9,-100.00,North,-999,-999.0,-999.0,-999,0.00,,,0.09,,2013-03-09 16:12:00,
2013-03-09 09:22:00,18.0,-99.9,-100.00,North,-999,-999.0,-999.0,-999,0.00,,,0.09,,2013-03-09 16:22:00,
2013-03-09 09:32:00,18.0,-99.9,-100.00,North,-999,-999.0,-999.0,-999,0.00,,,0.09,,2013-03-09 16:32:00,
2013-03-09 09:42:00,18.0,-99.9,-100.00,North,-999,-999.0,-999.0,-999,0.00,,,0.09,,2013-03-09 16:42:00,
2013-03-09 10:11:00,26.0,-99.9,-100.00,North,-999,-999.0,-999.0,-999,0.00,,,-99.99,,2013-03-09 17:11:00,
2013-03-09 10:22:00,26.0,-99.9,-100.00,North,-999,-999.0,-999.0,-999,0.00,,,-99.99,,2013-03-09 17:22:00,
2013-03-09 10:32:00,26.0,-99.9,-100.00,North,-999,-999.0,-999.0,-999,0.00,,,-99.99,,2013-03-09 17:32:00,
2013-03-09 10:42:00,26.0,-99.9,-100.00,North,-999,-999.0,-999.0,-999,0.00,,,-99.99,,2013-03-09 17:42:00,
2013-03-09 11:12:00,33.0,-99.9,-100.00,North,-999,-999.0,-999.0,-999,0.00,,,0.09,,2013-03-09 18:12:00,
2013-03-09 11:22:00,33.0,-99.9,-100.00,North,-999,-999.0,-999.0,-999,0.00,,,0.09,,2013-03-09 18:22:00,
2013-03-09 11:32:00,33.0,-99.9,-100.00,North,-999,-999.0,-999.0,-999,0.00,,,0.09,,2013-03-09 18:32:00,
2013-03-09 11:42:00,33.0,-99.9,-100.00,North,-999,-999.0,-999.0,-999,0.00,,,0.09,,2013-03-09 18:42:00,
2013-03-09 12:12:00,36.0,-99.9,-100.00,North,-999,-999.0,-999.0,-999,0.00,,,0.09,,2013-03-09 19:12:00,
2013-03-09 12:22:00,36.0,-99.9,-100.00,North,-999,-999.0,-999.0,-999,0.00,,,0.09,,2013-03-09 19:22:00,
2013-03-09 12:32:00,36.0,-99.9,-100.00,North,-999,-999.0,-999.0,-999,0.00,,,0.09,,2013-03-09 19:32:00,
2013-03-09 12:42:00,36.0,-99.9,-100.00,North,-999,-999.0,-999.0,-999,0.00,,,0.09,,2013-03-09 19:42:00,
2013-03-09 13:12:00,35.0,-99.9,-100.00,North,-999,-999.0,-999.0,-999,0.00,,,0.09,,2013-03-09 20:12:00,
2013-03-09 13:22:00,35.0,-99.9,-100.00,North,-999,-999.0,-999.0,-999,0.00,,,0.09,,2013-03-09 20:22:00,
2013-03-09 13:32:00,35.0,-99.9,-100.00,North,-999,-999.0,-999.0,-999,0.00,,,0.09,,2013-03-09 20:32:00,
2013-03-09 13:42:00,35.0,-99.9,-100.00,North,-999,-999.0,-999.0,-999,0.00,,,0.09,,2013-03-09 20:42:00,
2013-03-09 14:22:00,36.0,-99.9,-100.00,North,-999,-999.0,-999.0,-999,0.00,,,0.09,,2013-03-09 21:22:00,
2013-03-09 14:32:00,36.0,-99.9,-100.00,North,-999,-999.0,-999.0,-999,0.00,,,0.09,,2013-03-09 21:32:00,
2013-03-09 14:42:00,36.0,-99.9,-100.00,North,-999,-999.0,-999.0,-999,0.00,,,0.09,,2013-03-09 21:42:00,
2013-03-09 15:11:00,38.0,-99.9,-100.00,North,-999,-999.0,-999.0,-999,0.00,,,0.09,,2013-03-09 22:11:00,
2013-03-09 15:22:00,38.0,-99.9,-100.00,North,-999,-999.0,-999.0,-999,0.00,,,0.09,,2013-03-09 22:22:00,
2013-03-09 15:32:00,38.0,-99.9,-100.00,North,-999,-999.0,-999.0,-999,0.00,,,0.09,,2013-03-09 22:32:00,
2013-03-09 15:42:00,38.0,-99.9,-100.00,North,-999,-999.0,-999.0,-999,0.00,,,0.09,,2013-03-09 22:42:00,
2013-03-09 16:11:00,38.0,-99.9,-100.00,North,-999,-999.0,-999.0,-999,0.00,,,0.08,,2013-03-09 23:11:00,
2013-03-09 16:22:00,38.0,-99.9,-100.00,North,-999,-999.0,-999.0,-999,0.00,,,0.08,,2013-03-09 23:22:00,
2013-03-09 16:32:00,38.0,-99.9,-100.00,North,-999,-999.0,-999.0,-999,0.00,,,0.08,,2013-03-09 23:32:00,
2013-03-09 16:42:00,38.0,-99.9,-100.00,North,-999,-999.0,-999.0,-999,0.00,,,0.08,,2013-03-09 23:42:00,
2013-03-09 17:12:00,36.0,-99.9,-100.00,North,-999,-999.0,-999.0,-999,0.00,,,0.07,,2013-03-10 00:12:00,
2013-03-09 17:22:00,36.0,-99.9,-100.00,North,-999,-999.0,-999.0,-999,0.00,,,0.07,,2013-03-10 00:22:00,
2013-03-09 17:32:00,36.0,-99.9,-100.00,North,-999,-999.0,-999.0,-999,0.00,,,0.07,,2013-03-10 00:32:00,
2013-03-09 17:43:00,36.0,-99.9,-100.00,North,-999,-999.0,-999.0,-999,0.00,,,0.07,,2013-03-10 00:43:00,
2013-03-09 18:12:00,32.0,-99.9,-100.00,North,-999,-999.0,-999.0,-999,0.00,,,0.07,,2013-03-10 01:12:00,
2013-03-09 18:22:00,32.0,-99.9,-100.00,North,-999,-999.0,-999.0,-999,0.00,,,0.07,,2013-03-10 01:22:00,
2013-03-09 18:32:00,32.0,-99.9,-100.00,North,-999,-999.0,-999.0,-999,0.00,,,0.07,,2013-03-10 01:32:00,
2013-03-09 18:42:00,32.0,-99.9,-100.00,North,-999,-999.0,-999.0,-999,0.00,,,0.07,,2013-03-10 01:42:00,
2013-03-09 19:22:00,29.0,-99.9,-100.00,North,-999,-999.0,-999.0,-999,0.00,,,-99.99,,2013-03-10 02:22:00,
2013-03-09 19:32:00,29.0,-99.9,-100.00,North,-999,-999.0,-999.0,-999,0.00,,,-99.99,,2013-03-10 02:32:00,
2013-03-09 19:42:00,29.0,-99.9,-100.00,North,-999,-999.0,-999.0,-999,0.00,,,-99.99,,2013-03-10 02:42:00,
2013-03-09 20:23:00,24.0,-99.9,-100.00,North,-999,-999.0,-999.0,-999,0.00,,,-99.99,,2013-03-10 03:23:00,
2013-03-09 20:32:00,24.0,-99.9,-100.00,North,-999,-999.0,-999.0,-999,0.00,,,-99.99,,2013-03-10 03:32:00,
2013-03-09 20:42:00,24.0,-99.9,-100.00,North,-999,-999.0,-999.0,-999,0.00,,,-99.99,,2013-03-10 03:42:00,
2013-03-09 21:12:00,20.0,-99.9,-100.00,North,-999,-999.0,-999.0,-999,0.00,,,0.04,,2013-03-10 04:12:00,
2013-03-09 21:22:00,20.0,-99.9,-100.00,North,-999,-999.0,-999.0,-999,0.00,,,0.04,,2013-03-10 04:22:00,
2013-03-09 21:32:00,20.0,-99.9,-100.00,North,-999,-999.0,-999.0,-999,0.00,,,0.04,,2013-03-10 04:32:00,
2013-03-09 21:42:00,20.0,-99.9,-100.00,North,-999,-999.0,-999.0,-999,0.00,,,0.04,,2013-03-10 04:42:00,
2013-03-09 22:11:00,14.0,-99.9,-100.00,North,-999,-999.0,-999.0,-999,0.00,,,0.04,,2013-03-10 05:11:00,
2013-03-09 22:22:00,14.0,-99.9,-100.00,North,-999,-999.0,-999.0,-999,0.00,,,0.04,,2013-03-10 05:22:00,
2013-03-09 22:32:00,14.0,-99.9,-100.00,North,-999,-999.0,-999.0,-999,0.00,,,0.04,,2013-03-10 05:32:00,
2013-03-09 22:42:00,14.0,-99.9,-100.00,North,-999,-999.0,-999.0,-999,0.00,,,0.04,,2013-03-10 05:42:00,
2013-03-09 23:11:00,11.0,-99.9,-100.00,North,-999,-999.0,-999.0,-999,0.00,,,0.03,,2013-03-10 06:11:00,
2013-03-09 23:22:00,11.0,-99.9,-100.00,North,-999,-999.0,-999.0,-999,0.00,,,0.03,,2013-03-10 06:22:00,
2013-03-09 23:32:00,11.0,-99.9,-100.00,North,-999,-999.0,-999.0,-999,0.00,,,0.03,,2013-03-10 06:32:00,
2013-03-09 23:42:00,11.0,-99.9,-100.00,North,-999,-999.0,-999.0,-999,0.00,,,0.03,,2013-03-10 06:42:00,